AW706 Weather Reports


time (UTC)temp
C
wind
direction
speed
KPH
gust
KPH
rain 1hr
cm
rain 24hr
cm
rain mn
cm
humidity
%
barometer
mb
20260504194757 18 169 8.0 19.3 0.00 0.00 0.00 54 1007.1
20260504194258 18 189 6.4 14.5 0.00 0.00 0.00 53 1007.2
20260504194019 18 166 8.0 20.9 0.00 0.00 0.00 53 1007.2
20260504193258 18 178 11.3 20.9 0.00 0.00 0.00 52 1007.2
20260504192758 18 187 9.7 19.3 0.00 0.00 0.00 52 1007.2
20260504192258 18 174 9.7 19.3 0.00 0.00 0.00 51 1007.3
20260504191759 18 162 11.3 22.5 0.00 0.00 0.00 51 1007.3
20260504191736 18 177 9.7 22.5 0.00 0.00 0.00 51 1007.3
20260504190756 19 177 6.4 20.9 0.00 0.00 0.00 48 1007.3
20260504190255 19 170 6.4 20.9 0.00 0.00 0.00 48 1007.4
20260504185756 19 176 6.4 17.7 0.00 0.00 0.00 48 1007.4
20260504185256 19 182 8.0 17.7 0.00 0.00 0.00 49 1007.4
20260504184755 19 166 6.4 16.1 0.00 0.00 0.00 50 1007.5
20260504184256 20 172 6.4 12.9 0.00 0.00 0.00 48 1007.6
20260504183755 19 194 6.4 14.5 0.00 0.00 0.00 48 1007.7
20260504183255 19 196 8.0 14.5 0.00 0.00 0.00 46 1007.7
20260504182756 20 179 6.4 14.5 0.00 0.00 0.00 47 1007.7
20260504182256 19 172 8.0 17.7 0.00 0.00 0.00 46 1007.6
20260504181757 19 172 8.0 19.3 0.00 0.00 0.00 46 1007.6
20260504181256 19 176 8.0 19.3 0.00 0.00 0.00 47 1007.6
20260504181015 19 179 8.0 17.7 0.00 0.00 0.00 45 1007.7
20260504180257 19 176 8.0 17.7 0.00 0.00 0.00 43 1007.7
20260504175754 19 169 8.0 17.7 0.00 0.00 0.00 44 1007.6
20260504175254 19 176 8.0 17.7 0.00 0.00 0.00 42 1007.7
20260504174754 19 188 8.0 17.7 0.00 0.00 0.00 44 1007.7
20260504174516 19 144 6.4 19.3 0.00 0.00 0.00 44 1007.7
20260504173754 19 201 6.4 19.3 0.00 0.00 0.00 45 1007.8
20260504173254 19 210 6.4 17.7 0.00 0.00 0.00 44 1007.9
20260504173015 19 179 6.4 17.7 0.00 0.00 0.00 45 1007.9
20260504172254 19 180 6.4 19.3 0.00 0.00 0.00 44 1008.0
20260504171754 18 194 6.4 19.3 0.00 0.00 0.00 45 1008.1
20260504171254 18 196 8.0 16.1 0.00 0.00 0.00 44 1008.0
20260504171015 18 191 8.0 17.7 0.00 0.00 0.00 43 1008.2
20260504170254 18 176 6.4 17.7 0.00 0.00 0.00 44 1008.3
20260504160249 18 227 6.4 20.9 0.00 0.00 0.00 39 1008.9
20260504151010 18 268 6.4 14.5 0.00 0.00 0.00 40 1009.4
20260504150247 18 269 6.4 14.5 0.00 0.00 0.00 40 1009.6
20260504141242 17 287 6.4 16.1 0.00 0.00 0.00 43 1009.6
20260504140741 17 219 6.4 14.5 0.00 0.00 0.00 44 1009.6
20260504140241 17 270 6.4 14.5 0.00 0.00 0.00 43 1009.6
20260504130740 15 130 4.8 14.5 0.00 0.00 0.00 50 1010.0
20260504130239 15 177 4.8 14.5 0.00 0.00 0.00 50 1010.0
20260504120240 12 177 4.8 11.3 0.00 0.00 0.00 57 1010.2
20260504110239 10 189 3.2 8.0 0.00 0.00 0.00 59 1010.2
20260504100229 8 202 3.2 6.4 0.00 0.00 0.00 61 1010.0
20260504081719 10 255 3.2 8.0 0.00 0.00 0.00 52 1009.3
20260504081220 10 233 1.6 4.8 0.00 0.00 0.00 53 1009.4
20260504080719 10 314 1.6 8.0 0.00 0.00 0.00 53 1009.3
20260504080220 10 174 3.2 11.3 0.00 0.00 0.00 52 1009.2
20260504070221 10 227 1.6 6.4 0.00 0.00 0.00 53 1008.8
20260504060211 9 200 0.0 3.2 0.00 0.00 0.00 62 1008.9
20260504050708 9 181 1.6 4.8 0.00 0.00 0.00 60 1008.6
20260504050425 9 186 1.6 3.2 0.00 0.00 0.00 60 1008.6
20260504045708 9 214 1.6 3.2 0.00 0.00 0.00 60 1008.6
20260504045207 10 218 1.6 4.8 0.00 0.00 0.00 60 1008.6
20260504044708 9 215 1.6 4.8 0.00 0.00 0.00 60 1008.6
20260504044209 9 150 1.6 4.8 0.00 0.00 0.00 60 1008.5
20260504043708 9 192 1.6 4.8 0.00 0.00 0.00 61 1008.5
20260504043209 9 174 1.6 3.2 0.00 0.00 0.00 61 1008.5
20260504042708 8 199 0.0 3.2 0.00 0.00 0.00 62 1008.5
20260504042209 8 242 1.6 3.2 0.00 0.00 0.00 62 1008.5
20260504041708 8 0 1.6 3.2 0.00 0.00 0.00 61 1008.4
20260504041205 8 213 0.0 3.2 0.00 0.00 0.00 60 1008.4
20260504040706 8 196 0.0 1.6 0.00 0.00 0.00 60 1008.4
20260504040205 8 191 0.0 3.2 0.00 0.00 0.00 59 1008.4
20260504035707 8 0 0.0 3.2 0.00 0.00 0.00 59 1008.4
20260504035205 8 0 1.6 3.2 0.00 0.00 0.00 59 1008.4
20260504034703 8 251 1.6 3.2 0.00 0.00 0.00 60 1008.3
20260504034203 7 0 1.6 3.2 0.00 0.00 0.00 60 1008.3
20260504033703 7 235 0.0 1.6 0.00 0.00 0.00 64 1008.3
20260504033203 7 0 0.0 1.6 0.00 0.00 0.00 64 1008.2
20260504032924 7 0 0.0 1.6 0.00 0.00 0.00 64 1008.2
20260504032422 7 0 0.0 1.6 0.00 0.00 0.00 63 1008.2
20260504031703 7 0 0.0 1.6 0.00 0.00 0.00 61 1008.3
20260504031203 8 0 0.0 1.6 0.00 0.00 0.00 61 1008.3
20260504031151 8 356 0.0 1.6 0.00 0.00 0.00 58 1008.2
20260504030203 8 0 0.0 3.2 0.00 0.00 0.00 59 1008.3
20260504025704 8 0 0.0 3.2 0.00 0.00 0.00 59 1008.3
20260504025422 8 197 0.0 1.6 0.00 0.00 0.00 57 1008.2
20260504024700 9 348 0.0 1.6 0.00 0.00 0.00 56 1008.2
20260504024200 9 0 0.0 1.6 0.00 0.00 0.00 54 1008.2
20260504023701 9 0 0.0 1.6 0.00 0.00 0.00 52 1008.3
20260504023158 10 0 0.0 3.2 0.00 0.00 0.00 54 1008.4
20260504022657 10 0 0.0 3.2 0.00 0.00 0.00 49 1008.3
20260504022418 10 235 0.0 3.2 0.00 0.00 0.00 51 1008.3
20260504021658 10 0 0.0 4.8 0.00 0.00 0.00 48 1008.3
20260504021157 11 306 1.6 4.8 0.00 0.00 0.00 47 1008.3
20260504020158 11 212 3.2 4.8 0.00 0.00 0.00 44 1008.3
20260504015658 11 233 1.6 4.8 0.00 0.00 0.00 44 1008.2
20260504015158 11 216 1.6 3.2 0.00 0.00 0.00 46 1008.2
20260504015142 11 276 1.6 4.8 0.00 0.00 0.00 45 1008.2
20260504014419 11 282 3.2 6.4 0.00 0.00 0.00 44 1008.2
20260504013656 11 223 3.2 6.4 0.00 0.00 0.00 44 1008.1
20260504013416 11 200 3.2 6.4 0.00 0.00 0.00 45 1008.0
20260504012656 11 242 1.6 3.2 0.00 0.00 0.00 48 1008.0
20260504012155 11 254 1.6 3.2 0.00 0.00 0.00 44 1007.9
20260504011917 11 208 0.0 3.2 0.00 0.00 0.00 43 1007.9
20260504011156 11 241 0.0 1.6 0.00 0.00 0.00 42 1007.8
20260504010655 11 0 0.0 3.2 0.00 0.00 0.00 42 1007.8
20260504010156 11 190 1.6 3.2 0.00 0.00 0.00 42 1007.7
20260504005656 11 200 1.6 3.2 0.00 0.00 0.00 42 1007.6
20260504005157 11 209 1.6 3.2 0.00 0.00 0.00 41 1007.6
20260504004656 11 212 0.0 3.2 0.00 0.00 0.00 42 1007.6
20260504004156 12 0 0.0 3.2 0.00 0.00 0.00 41 1007.5
20260504003653 12 224 1.6 3.2 0.00 0.00 0.00 41 1007.4
20260504003415 12 226 1.6 3.2 0.00 0.00 0.00 39 1007.3
20260504002651 12 211 0.0 3.2 0.00 0.00 0.00 38 1007.2
20260504002150 12 0 0.0 3.2 0.00 0.00 0.00 38 1007.2
20260504001648 12 208 0.0 3.2 0.00 0.00 0.00 37 1007.1
20260504001147 13 233 1.6 6.4 0.00 0.00 0.00 37 1007.1
20260504000912 13 0 3.2 6.4 0.00 0.00 0.00 36 1007.0
20260504000145 13 281 3.2 6.4 0.00 0.00 0.00 35 1006.9
20260503235645 13 297 1.6 4.8 0.00 0.00 0.00 35 1006.9
20260503235145 13 220 1.6 6.4 0.00 0.00 0.00 35 1006.9
20260503234903 13 263 1.6 8.0 0.00 0.00 0.00 34 1006.8
20260503234145 13 223 3.2 8.0 0.00 0.00 0.00 33 1006.8
20260503233646 13 241 1.6 8.0 0.00 0.00 0.00 33 1006.7
20260503233145 14 246 3.2 14.5 0.00 0.00 0.00 32 1006.6
20260503232645 14 307 3.2 14.5 0.00 0.00 0.00 32 1006.6
20260503232145 14 0 3.2 11.3 0.00 0.00 0.00 32 1006.5
20260503231645 14 251 3.2 9.7 0.00 0.00 0.00 32 1006.5
20260503231145 14 205 3.2 8.0 0.00 0.00 0.00 32 1006.4
20260503230644 14 34 3.2 11.3 0.00 0.00 0.00 32 1006.4
20260503230144 14 281 3.2 11.3 0.00 0.00 0.00 31 1006.4
20260503225644 15 71 3.2 9.7 0.00 0.00 0.00 30 1006.4
20260503225144 15 338 3.2 12.9 0.00 0.00 0.00 30 1006.4
20260503224644 15 38 4.8 14.5 0.00 0.00 0.00 30 1006.4
20260503224145 15 249 4.8 14.5 0.00 0.00 0.00 30 1006.4
20260503223645 15 246 3.2 14.5 0.00 0.00 0.00 30 1006.3
20260503223145 15 208 3.2 11.3 0.00 0.00 0.00 30 1006.3
20260503222644 15 215 3.2 12.9 0.00 0.00 0.00 29 1006.3
20260503222145 15 219 3.2 14.5 0.00 0.00 0.00 30 1006.3
20260503221645 15 37 3.2 14.5 0.00 0.00 0.00 30 1006.3
20260503221141 15 47 3.2 14.5 0.00 0.00 0.00 30 1006.2
20260503220640 15 18 4.8 14.5 0.00 0.00 0.00 29 1006.3
20260503220138 16 27 4.8 11.3 0.00 0.00 0.00 29 1006.2
20260503215635 16 241 4.8 14.5 0.00 0.00 0.00 30 1006.2
20260503215135 15 339 4.8 16.1 0.00 0.00 0.00 30 1006.3
20260503214854 15 304 8.0 16.1 0.00 0.00 0.00 29 1006.2
20260503214135 15 204 6.4 16.1 0.00 0.00 0.00 30 1006.1
20260503213635 15 233 4.8 14.5 0.00 0.00 0.00 30 1006.1
20260503213135 15 341 4.8 14.5 0.00 0.00 0.00 30 1006.0
20260503212636 15 45 4.8 16.1 0.00 0.00 0.00 31 1006.0
20260503212135 15 144 4.8 16.1 0.00 0.00 0.00 30 1006.0
20260503211635 15 349 3.2 14.5 0.00 0.00 0.00 30 1006.0
20260503211357 15 223 4.8 11.3 0.00 0.00 0.00 31 1006.0
20260503210635 15 40 4.8 11.3 0.00 0.00 0.00 31 1006.0
20260503210136 15 223 4.8 14.5 0.00 0.00 0.00 31 1006.1
20260503205632 15 343 4.8 16.1 0.00 0.00 0.00 31 1006.0
20260503205618 15 44 4.8 16.1 0.00 0.00 0.00 30 1006.0
20260503204629 15 343 4.8 14.5 0.00 0.00 0.00 31 1005.9
20260503204130 15 16 4.8 14.5 0.00 0.00 0.00 31 1005.9
20260503203629 15 353 4.8 11.3 0.00 0.00 0.00 32 1005.9
20260503203356 15 341 4.8 11.3 0.00 0.00 0.00 33 1006.0
20260503202630 15 27 4.8 14.5 0.00 0.00 0.00 32 1006.0
20260503202356 15 186 6.4 14.5 0.00 0.00 0.00 32 1006.1
20260503201630 15 276 4.8 14.5 0.00 0.00 0.00 32 1006.0
20260503201130 15 214 4.8 17.7 0.00 0.00 0.00 33 1006.1
20260503200630 15 329 6.4 17.7 0.00 0.00 0.00 32 1006.0
20260503200131 15 187 4.8 20.9 0.00 0.00 0.00 33 1006.1
20260503195631 15 269 6.4 20.9 0.00 0.00 0.00 34 1006.1
20260503195130 14 297 4.8 14.5 0.00 0.00 0.00 34 1006.3